Home > Weather > Madison > Past weeks

Flag for USA Past Weather in Madison, Wisconsin, USA — Yesterday and Last 2 Weeks

Now
72 °F

Passing clouds.


Feels Like: 69 °F
Forecast: 64 / 81 °F
Wind: 7 mph from North

Location: Dane County Regional-Truax Field

Current Time: Aug 25, 2016 at 1:40:32 AM

Latest Report: Aug 25, 2016 at 12:53 AM


Visibility: 10 mi

Pressure: 29.93 "Hg

Humidity: 91%

Dew Point: 69 °F

Location of MadisonLocation

Past Weather in Madison — Graph

°F

Madison Temperature Yesterday

Maximum temperature yesterday: 82 °F (at 1:53 PM)
Minimum temperature yesterday: 67 °F (at 7:53 AM)
Average temperature yesterday: 74 °F

High & Low Weather Summary for the Past Weeks

 TemperatureHumidityPressure
High86 °F (Aug 10, 1:53 PM)100% (Aug 15, 3:53 AM)30.16 "Hg (Aug 15, 3:53 AM)
Low51 °F (Aug 22, 5:53 AM)44% (Aug 21, 3:53 PM)29.58 "Hg (Aug 20, 12:53 PM)
Average73 °F79%29.94 "Hg
* Reported Aug 9 11:53 PM — Aug 24 11:53 PM, Madison, Weather by CustomWeather, © 2016

Note: Actual official high and low records may vary slightly from our data, if they occured in-between our weather recording intervals... More about our weather records

Advertising

Madison Weather History for the Previous 24 Hours

Scroll right to see more
 ConditionsComfort  
Time TempWeatherWind HumidityBarometerVisibility
11:53 PM
Wed, Aug 24
73 °FOvercast.3 mph90%29.94 "Hg10 mi
10:53 PM75 °FPartly cloudy.5 mph90%29.94 "Hg10 mi
9:53 PM75 °FMostly cloudy.No wind96%29.94 "Hg7 mi
8:53 PM76 °FFog.No wind97%29.93 "Hg5 mi
7:53 PM78 °FMostly cloudy.3 mph90%29.91 "Hg10 mi
6:53 PM80 °FBroken clouds.No wind81%29.90 "Hg10 mi
5:53 PM82 °FBroken clouds.No wind74%29.89 "Hg10 mi
4:53 PM82 °FMostly cloudy.No wind72%29.89 "Hg10 mi
3:53 PM82 °FBroken clouds.9 mph70%29.88 "Hg10 mi
2:53 PM81 °FBroken clouds.7 mph72%29.89 "Hg10 mi
1:53 PM82 °FPartly sunny.9 mph70%29.88 "Hg10 mi
12:53 PM80 °FPartly sunny.9 mph74%29.89 "Hg10 mi
11:53 AM76 °FBroken clouds.13 mph80%29.90 "Hg10 mi
10:53 AM73 °FPartly sunny.12 mph84%29.89 "Hg10 mi
9:53 AM70 °FBroken clouds.10 mph87%29.90 "Hg10 mi
8:53 AM68 °FPartly sunny.8 mph93%29.89 "Hg10 mi
7:53 AM67 °FLight rain. More clouds than sun.15 mph93%29.90 "Hg10 mi
6:53 AM68 °FLight rain. Fog.9 mph93%29.94 "Hg6 mi
5:53 AM68 °FLight rain. Mostly cloudy.8 mph93%29.88 "Hg10 mi
5:02 AM68 °FHeavy rain. Fog.7 mph96%29.93 "Hg1 mi
4:53 AM69 °FHeavy rain. Fog.8 mph93%29.92 "Hg2 mi
3:53 AM71 °FOvercast.18 mph90%29.89 "Hg9 mi
2:53 AM71 °FOvercast.16 mph90%29.92 "Hg8 mi
1:53 AM71 °FOvercast.14 mph90%29.95 "Hg8 mi
1:04 AM72 °FThundershowers. Overcast.18 mph81%29.98 "Hg10 mi
Weather by CustomWeather, © 2016

See weather overviewHow to use our weather pages